Location: Krakow
(50.0830°N, 19.9170°E)
Time: 20:09:07
(UTC+01:00)

Altair - Pass Details

Date: 04 December 2023
Orbit: 1501 x 1682 km, 47.2° (Epoch: 03 March)

Event Time Altitude Azimuth Distance (km) Brightness Sun altitude
Rises 14:45:26 0° 288° (WNW) 4,687 10.4 5.8°
Reaches altitude 10° 14:48:56 10° 278° (W) 3,684 10.1 5.4°
Maximum altitude 14:56:34 30° 222° (SW) 2,424 10.0 4.5°
Drops below altitude 10° 15:04:08 10° 166° (SSE) 3,646 9.9 3.6°
Sets 15:07:36 0° 156° (SSE) 4,632 10.3 3.2°
